Regional Weather Roundup
Issued by NWS

Home | Current Version | Previous Version | Graphics & Text | Print | Product List | Glossary On
Versions: 1 2 3 4 5 6 7 8 9 10 11 12 13 14 15 16 17 18 19 20 21 22 23 24 25 26 27 28 29 30 31 32 33 34 35 36 37 38 39 40 41 42 43 44 45 46 47 48 49 50
000
ASUS43 KLMK 301410
RWRKY
KENTUCKY REGIONAL WEATHER ROUNDUP
NATIONAL WEATHER SERVICE LOUISVILLE KY
1000 AM EDT SAT APR 30 2016

NOTE "FAIR" INDICATES FEW OR NO CLOUDS BELOW 12,000 FEET
WITH NO SIGNIFICANT WEATHER AND/OR OBSTRUCTIONS TO VISIBILITY.

KYZ001>023-026-027-061>063-070>075-301500-
WESTERN AND SOUTH CENTRAL KENTUCKY

CITY           SKY/WX    TMP DP  RH WIND       PRES   REMARKS
PADUCAH        CLOUDY    63  61  93 SE10      29.85F
HENDERSON      CLOUDY    59  55  88 E7        29.88F
OWENSBORO      LGT RAIN  59  59 100 SE9       29.92F
HOPKINSVILLE   DRIZZLE   63  63 100 SE7       29.90F
BOWLING GREEN  LGT RAIN  61  59  93 E5        29.94F
GLASGOW        RAIN      59  59 100 NE8       29.96F
$$

KYZ024-025-028>034-038-045-046-053-301500-
NORTH CENTRAL KENTUCKY

CITY           SKY/WX    TMP DP  RH WIND       PRES   REMARKS
LOUISVILLE/SDF LGT RAIN  59  55  87 E5        29.99S FOG
LOUISVILLE/LOU LGT RAIN  58  55  90 E3        30.01R FOG
FORT KNOX      LGT RAIN  58  56  95 E9        29.95F FOG
$$

KYZ035>037-039>044-047>052-055>060-089>105-301500-
NORTHEAST KENTUCKY

CITY           SKY/WX    TMP DP  RH WIND       PRES   REMARKS
LEXINGTON      LGT RAIN  59  54  83 SW5       30.02R
COVINGTON      CLOUDY    54  50  86 E10       30.01R
FRANKFORT      LGT RAIN  59  53  80 E3        30.01R
$$

KYZ054-064>069-076>088-106>120-301500-
SOUTHEAST KENTUCKY

CITY           SKY/WX    TMP DP  RH WIND       PRES   REMARKS
JACKSON        CLOUDY    60  53  77 CALM      29.99S
LONDON         CLOUDY    62  52  69 CALM      29.98R
SOMERSET       LGT RAIN  61  52  72 CALM      30.00R
MIDDLESBORO    CLOUDY    65  54  67 W5        30.00R
MONTICELLO     NOT AVBL
$$




USA.gov is the U.S. government's official web portal to all federal, state and local government web resources and services.